FW8927 Weather Reports


time (UTC)temp
F
wind
direction
speed
knots
gust
knots
rain 1hr
in
rain 24hr
in
rain mn
in
humidity
%
barometer
mb
20260508193120 68 223 3.5 13.0 0.00 0.00 0.00 45 1010.3
20260508191606 67 252 5.2 13.0 0.00 0.00 0.00 43 1010.4
20260508190110 67 232 6.1 15.6 0.00 0.00 0.00 40 1010.9
20260508184553 66 234 6.1 13.0 0.00 0.00 0.00 41 1011.0
20260508183100 66 252 3.5 13.0 0.00 0.00 0.00 43 1011.5
20260508181605 65 261 4.3 13.9 0.00 0.00 0.00 43 1011.8
20260508180058 66 215 5.2 8.7 0.00 0.00 0.00 43 1012.1
20260508174552 65 184 5.2 13.0 0.00 0.00 0.00 46 1012.4
20260508173057 65 203 1.7 14.8 0.00 0.00 0.00 45 1012.7
20260508171554 64 132 6.1 13.9 0.00 0.00 0.00 45 1012.7
20260508170100 64 221 5.2 11.3 0.00 0.00 0.00 49 1013.0
20260508164554 63 223 7.0 13.0 0.00 0.00 0.00 51 1013.3
20260508163105 63 275 5.2 11.3 0.00 0.00 0.00 51 1013.4
20260508161558 62 118 5.2 13.0 0.00 0.00 0.00 51 1013.5
20260508160055 63 242 3.5 9.6 0.00 0.00 0.00 49 1013.7
20260508154559 63 198 3.5 7.8 0.00 0.00 0.00 52 1014.0
20260508153104 61 270 3.5 8.7 0.00 0.00 0.00 52 1014.2
20260508151557 60 213 4.3 8.7 0.00 0.00 0.00 51 1014.3
20260508150055 60 196 3.5 10.4 0.00 0.00 0.00 51 1014.2
20260508144553 59 272 6.1 12.2 0.00 0.00 0.00 51 1014.2
20260508143114 58 241 3.5 9.6 0.00 0.00 0.00 59 1013.9
20260508141558 57 240 2.6 10.4 0.00 0.00 0.00 62 1014.3
20260508140112 55 189 2.6 7.0 0.00 0.00 0.00 66 1014.3
20260508134554 53 165 3.5 7.0 0.00 0.00 0.00 70 1014.1
20260508133052 51 221 2.6 6.1 0.00 0.00 0.00 74 1014.1
20260508131555 49 219 3.5 6.1 0.00 0.00 0.00 79 1014.1
20260508130053 47 200 3.5 5.2 0.00 0.00 0.00 81 1014.2
20260508124555 45 178 2.6 5.2 0.00 0.00 0.00 85 1014.3
20260508123054 43 206 1.7 6.1 0.00 0.00 0.00 89 1014.3
20260508121553 41 201 3.5 6.1 0.00 0.00 0.00 91 1014.2
20260508120113 40 210 2.6 4.3 0.00 0.00 0.00 94 1014.2
20260508114604 38 204 0.9 2.6 0.00 0.00 0.00 97 1014.0
20260508113104 36 165 0.9 1.7 0.00 0.00 0.00 97 1014.0
20260508111556 35 0 0.0 0.0 0.00 0.00 0.00 96 1013.9
20260508104550 35 0 0.0 0.0 0.00 0.00 0.00 95 1013.6
20260508103057 35 0 0.0 0.0 0.00 0.00 0.00 95 1013.7
20260508101556 35 0 0.0 0.0 0.00 0.00 0.00 96 1013.6
20260508100129 36 0 0.0 0.0 0.00 0.00 0.00 96 1013.5
20260508094559 35 0 0.0 0.9 0.00 0.00 0.00 96 1013.4
20260508093101 35 0 0.0 0.9 0.00 0.00 0.00 95 1013.4
20260508091610 35 0 0.0 0.0 0.00 0.00 0.00 95 1013.5
20260508090057 35 0 0.0 0.0 0.00 0.00 0.00 95 1013.5
20260508084554 35 0 0.0 0.0 0.00 0.00 0.00 95 1013.3
20260508083053 35 0 0.0 0.0 0.00 0.00 0.00 95 1013.2
20260508081611 35 0 0.0 0.0 0.00 0.00 0.00 94 1013.3
20260508080055 36 0 0.0 0.0 0.00 0.00 0.00 94 1013.1
20260508074559 36 0 0.0 0.0 0.00 0.00 0.00 93 1013.0
20260508073053 37 0 0.0 0.0 0.00 0.00 0.00 93 1013.0
20260508071556 37 0 0.0 0.0 0.00 0.00 0.00 93 1013.0
20260508070059 37 0 0.0 2.6 0.00 0.00 0.00 93 1013.1
20260508064555 37 0 0.0 0.0 0.00 0.00 0.00 92 1013.2
20260508063056 38 0 0.0 0.0 0.00 0.00 0.00 92 1013.4
20260508061604 38 0 0.0 0.0 0.00 0.00 0.00 91 1013.3
20260508060106 39 0 0.0 0.0 0.00 0.00 0.00 91 1013.4
20260508054638 39 0 0.0 0.0 0.00 0.00 0.00 90 1013.5
20260508053057 39 0 0.0 0.0 0.00 0.00 0.00 89 1013.5
20260508051554 40 0 0.0 0.0 0.00 0.00 0.00 88 1013.4
20260508050053 40 0 0.0 0.0 0.00 0.00 0.00 88 1013.4
20260508044554 40 0 0.0 0.0 0.00 0.00 0.00 87 1013.2
20260508043058 41 0 0.0 0.0 0.00 0.00 0.00 89 1013.3
20260508041554 42 0 0.0 0.0 0.00 0.00 0.00 88 1013.4
20260508040056 42 0 0.0 0.0 0.00 0.00 0.00 86 1013.3
20260508034553 43 0 0.0 0.0 0.00 0.00 0.00 85 1013.2
20260508033054 44 0 0.0 0.0 0.00 0.00 0.00 83 1013.3
20260508031556 45 0 0.0 0.0 0.00 0.00 0.00 81 1013.4
20260508030058 46 0 0.0 0.0 0.00 0.00 0.00 78 1013.3
20260508024605 47 0 0.0 0.0 0.00 0.00 0.00 73 1013.3
20260508023052 47 0 0.0 0.0 0.00 0.00 0.00 69 1013.2
20260508021602 48 0 0.0 0.9 0.00 0.00 0.00 68 1013.0
20260508020103 48 0 0.0 1.7 0.00 0.00 0.00 69 1012.7
20260508014606 48 36 0.0 1.7 0.00 0.00 0.00 69 1012.4
20260508013056 49 322 0.0 1.7 0.00 0.00 0.00 69 1012.3
20260508011606 50 315 0.0 1.7 0.00 0.00 0.00 61 1012.1
20260508010053 51 315 0.0 1.7 0.00 0.00 0.00 56 1011.8
20260508004553 53 311 0.0 2.6 0.00 0.00 0.00 51 1011.8
20260508003058 54 0 0.0 1.7 0.00 0.00 0.00 50 1011.5
20260508001553 55 0 0.0 2.6 0.00 0.00 0.00 48 1011.4
20260508000052 56 0 0.9 3.5 0.00 0.00 0.00 45 1011.4
20260507234553 57 344 0.9 7.8 0.00 0.00 0.00 44 1011.4
20260507233053 58 350 1.7 7.0 0.00 0.00 0.00 42 1011.3
20260507231554 59 0 1.7 7.8 0.00 0.00 0.00 41 1011.1
20260507230056 60 291 1.7 5.2 0.00 0.00 0.00 41 1011.2
20260507224553 60 276 2.6 8.7 0.00 0.00 0.00 42 1011.2
20260507223055 60 288 2.6 11.3 0.00 0.00 0.00 43 1011.2
20260507221555 61 72 0.9 3.5 0.00 0.00 0.00 42 1011.3
20260507220055 60 293 3.5 8.7 0.00 0.00 0.00 40 1011.1
20260507214554 61 277 1.7 9.6 0.00 0.00 0.00 43 1011.0
20260507213052 61 0 4.3 10.4 0.00 0.00 0.00 42 1010.9
20260507211556 61 319 1.7 8.7 0.00 0.00 0.00 45 1010.9
20260507210059 61 306 2.6 12.2 0.00 0.00 0.00 45 1010.7
20260507204556 61 320 4.3 11.3 0.00 0.00 0.00 44 1010.5
20260507203058 60 317 4.3 10.4 0.00 0.00 0.00 46 1010.7
20260507201557 60 279 7.0 13.0 0.00 0.00 0.00 44 1010.7
20260507200056 61 250 2.6 13.0 0.00 0.00 0.00 47 1010.5
20260507194556 61 261 4.3 9.6 0.00 0.00 0.00 45 1010.8